N422 KWVI-KBOK

Flight info

Callsign N422
Flight time 0h 34m
Altitude 26000
Route GARLK1 CHAWZ
Aircraft BE60/L-SDFGRY/C

Departure

Time 2026-05-08 01:18
Airport Watsonville Municipal Airport (KWVI)

Arrival

Time 2026-05-08 01:52
Airport Brookings Airport (KBOK)
Time Latitude Longitude Altitude Speed Heading
2026-05-08 01:07 36.93458 -121.78775 151 ft 0 kts 87°
2026-05-08 01:14 36.93458 -121.78773 151 ft 2 kts 76°
2026-05-08 01:14 36.93487 -121.78795 151 ft 11 kts 304°
2026-05-08 01:15 36.93515 -121.78880 151 ft 14 kts 296°
2026-05-08 01:15 36.93573 -121.78934 151 ft 15 kts 33°
2026-05-08 01:15 36.93661 -121.78864 151 ft 9 kts 27°
2026-05-08 01:15 36.93685 -121.78950 152 ft 16 kts 281°
2026-05-08 01:16 36.93710 -121.79120 151 ft 19 kts 280°
2026-05-08 01:16 36.93730 -121.79259 150 ft 14 kts 280°
2026-05-08 01:16 36.93782 -121.79376 150 ft 12 kts 324°
2026-05-08 01:16 36.93833 -121.79385 151 ft 0 kts 96°
2026-05-08 01:17 36.93825 -121.79333 152 ft 31 kts 100°
2026-05-08 01:17 36.93743 -121.78786 151 ft 90 kts 101°
2026-05-08 01:17 36.93628 -121.77945 366 ft 101 kts 101°
2026-05-08 01:18 36.93495 -121.77069 662 ft 108 kts 101°
2026-05-08 01:18 36.93279 -121.76098 888 ft 121 kts 123°
2026-05-08 01:18 36.92609 -121.75491 1228 ft 124 kts 167°
2026-05-08 01:18 36.91770 -121.75662 1588 ft 127 kts 211°
2026-05-08 01:19 36.91218 -121.76513 1952 ft 128 kts 243°
2026-05-08 01:19 36.90856 -121.77537 2319 ft 129 kts 245°
2026-05-08 01:19 36.90459 -121.78545 2668 ft 130 kts 241°
2026-05-08 01:19 36.90011 -121.79528 3014 ft 131 kts 239°
2026-05-08 01:20 36.89525 -121.80494 3359 ft 132 kts 238°
2026-05-08 01:20 36.89022 -121.81447 3711 ft 131 kts 238°
2026-05-08 01:20 36.88516 -121.82392 4071 ft 130 kts 238°
2026-05-08 01:20 36.88009 -121.83317 4432 ft 129 kts 237°
2026-05-08 01:21 36.87501 -121.84232 4785 ft 128 kts 237°
2026-05-08 01:21 36.86995 -121.85148 5132 ft 128 kts 237°
2026-05-08 01:21 36.86488 -121.86066 5468 ft 129 kts 237°
2026-05-08 01:21 36.85974 -121.86990 5818 ft 130 kts 237°
2026-05-08 01:22 36.85464 -121.87915 6156 ft 130 kts 237°
2026-05-08 01:22 36.84952 -121.88843 6496 ft 129 kts 237°
2026-05-08 01:22 36.84437 -121.89771 6825 ft 130 kts 236°
2026-05-08 01:22 36.83919 -121.90697 7144 ft 130 kts 234°
2026-05-08 01:23 36.83295 -121.91511 7466 ft 130 kts 222°
2026-05-08 01:23 36.80372 -121.94677 8776 ft 131 kts 222°
2026-05-08 01:23 36.75005 -122.00947 11133 ft 133 kts 245°
2026-05-08 01:23 36.79878 -122.05445 13250 ft 146 kts 358°
2026-05-08 01:24 36.83243 -122.09867 14783 ft 146 kts 257°
2026-05-08 01:24 36.83231 -122.11120 15052 ft 147 kts 291°
2026-05-08 01:24 36.83763 -122.12205 15333 ft 147 kts 308°
2026-05-08 01:24 36.85936 -122.15406 16261 ft 150 kts 309°
2026-05-08 01:25 36.90323 -122.21532 18008 ft 153 kts 329°
2026-05-08 01:25 36.97944 -122.26044 20146 ft 155 kts 326°
2026-05-08 01:25 37.05478 -122.31211 22010 ft 153 kts 330°
2026-05-08 01:25 37.12970 -122.36188 23259 ft 155 kts 342°
2026-05-08 01:26 37.21415 -122.38915 24183 ft 157 kts 342°
2026-05-08 01:26 37.29722 -122.41984 24837 ft 155 kts 343°
2026-05-08 01:26 37.37970 -122.44994 25287 ft 154 kts 343°
2026-05-08 01:26 37.46322 -122.48035 25908 ft 157 kts 343°
2026-05-08 01:27 37.54703 -122.51111 26074 ft 182 kts 343°
2026-05-08 01:27 37.59762 -122.52964 26049 ft 196 kts 343°
2026-05-08 01:27 37.62905 -122.54118 26031 ft 202 kts 343°
2026-05-08 01:27 37.74005 -122.58204 26028 ft 211 kts 343°
2026-05-08 01:28 37.85335 -122.62394 26032 ft 213 kts 343°
2026-05-08 01:28 37.96744 -122.66626 25994 ft 213 kts 343°
2026-05-08 01:28 38.07779 -122.70751 25995 ft 202 kts 343°
2026-05-08 01:28 38.18422 -122.74723 25995 ft 198 kts 342°
2026-05-08 01:29 38.28904 -122.78647 26014 ft 196 kts 342°
2026-05-08 01:29 38.39341 -122.82569 26012 ft 195 kts 342°
2026-05-08 01:29 38.49809 -122.86512 25992 ft 196 kts 342°
2026-05-08 01:29 38.60275 -122.90466 25983 ft 196 kts 342°
2026-05-08 01:30 38.70721 -122.94422 25976 ft 196 kts 342°
2026-05-08 01:30 38.81182 -122.98402 25975 ft 197 kts 342°
2026-05-08 01:30 38.91678 -123.02404 25964 ft 198 kts 342°
2026-05-08 01:30 39.02209 -123.06432 25957 ft 198 kts 342°
2026-05-08 01:31 39.12734 -123.10469 25956 ft 197 kts 342°
2026-05-08 01:31 39.23234 -123.14512 25958 ft 198 kts 342°
2026-05-08 01:31 39.33772 -123.18580 25964 ft 197 kts 342°
2026-05-08 01:31 39.44286 -123.22649 25962 ft 197 kts 342°
2026-05-08 01:32 39.54783 -123.26732 25983 ft 197 kts 342°
2026-05-08 01:32 39.65294 -123.30827 25990 ft 198 kts 342°
2026-05-08 01:32 39.75731 -123.34906 26000 ft 198 kts 341°
2026-05-08 01:32 39.86300 -123.39056 26008 ft 199 kts 341°
2026-05-08 01:33 39.96905 -123.43229 26016 ft 199 kts 341°
2026-05-08 01:33 40.07525 -123.47422 26001 ft 200 kts 341°
2026-05-08 01:33 40.18159 -123.51634 26008 ft 199 kts 341°
2026-05-08 01:33 40.28761 -123.55847 26022 ft 199 kts 341°
2026-05-08 01:34 40.39372 -123.60078 26008 ft 200 kts 341°
2026-05-08 01:34 40.50002 -123.64331 26025 ft 199 kts 341°
2026-05-08 01:34 40.60601 -123.68585 26012 ft 199 kts 341°
2026-05-08 01:34 40.71193 -123.72848 26028 ft 199 kts 341°
2026-05-08 01:35 40.81786 -123.77132 26031 ft 199 kts 341°
2026-05-08 01:35 40.92353 -123.81415 26044 ft 199 kts 341°
2026-05-08 01:35 41.02982 -123.85738 26038 ft 200 kts 341°
2026-05-08 01:35 41.10046 -123.88619 26042 ft 201 kts 341°
2026-05-08 01:36 41.20694 -123.92976 26043 ft 200 kts 341°
2026-05-08 01:36 41.31307 -123.97333 26049 ft 200 kts 341°
2026-05-08 01:36 41.41970 -124.01726 26040 ft 200 kts 341°
2026-05-08 01:36 41.52597 -124.06116 26066 ft 200 kts 341°
2026-05-08 01:37 41.59740 -124.09076 26066 ft 200 kts 341°
2026-05-08 01:37 41.61071 -124.09626 26065 ft 200 kts 340°
2026-05-08 01:37 41.62229 -124.10579 26068 ft 196 kts 308°
2026-05-08 01:37 41.62976 -124.12069 26028 ft 189 kts 298°
2026-05-08 01:38 41.63592 -124.13603 25607 ft 187 kts 296°
2026-05-08 01:38 41.64183 -124.15138 25180 ft 185 kts 296°
2026-05-08 01:38 41.64828 -124.16621 24767 ft 185 kts 305°
2026-05-08 01:38 41.65710 -124.17867 24337 ft 186 kts 319°
2026-05-08 01:39 41.66808 -124.18850 23763 ft 195 kts 330°
2026-05-08 01:39 41.68058 -124.19638 23205 ft 202 kts 336°
2026-05-08 01:39 41.69386 -124.20313 22667 ft 206 kts 339°
2026-05-08 01:39 41.70752 -124.20941 22137 ft 209 kts 340°
2026-05-08 01:40 41.72136 -124.21551 21616 ft 210 kts 340°
2026-05-08 01:40 41.73551 -124.22170 21109 ft 224 kts 340°
2026-05-08 01:40 41.75046 -124.22817 20580 ft 225 kts 340°
2026-05-08 01:40 41.76562 -124.23472 19798 ft 233 kts 340°
2026-05-08 01:41 41.78121 -124.24148 19023 ft 238 kts 340°
2026-05-08 01:41 41.79707 -124.24837 18249 ft 241 kts 340°
2026-05-08 01:41 41.81308 -124.25532 17477 ft 242 kts 340°
2026-05-08 01:41 41.82910 -124.26231 16708 ft 243 kts 340°
2026-05-08 01:42 41.84514 -124.26931 15947 ft 242 kts 340°
2026-05-08 01:42 41.86115 -124.27631 15185 ft 241 kts 340°
2026-05-08 01:42 41.87700 -124.28328 14438 ft 239 kts 340°
2026-05-08 01:42 41.89273 -124.29020 13694 ft 237 kts 340°
2026-05-08 01:43 41.90831 -124.29705 12963 ft 235 kts 340°
2026-05-08 01:43 41.92377 -124.30382 12231 ft 232 kts 340°
2026-05-08 01:43 41.93882 -124.31043 11522 ft 229 kts 340°
2026-05-08 01:43 41.95390 -124.31704 10810 ft 227 kts 341°
2026-05-08 01:44 41.96880 -124.32359 10105 ft 224 kts 341°
2026-05-08 01:44 41.98368 -124.33012 9393 ft 220 kts 341°
2026-05-08 01:44 41.99813 -124.33647 8698 ft 217 kts 341°
2026-05-08 01:44 42.01226 -124.34306 8006 ft 213 kts 335°
2026-05-08 01:45 42.02609 -124.34966 7318 ft 210 kts 350°
2026-05-08 01:45 42.04049 -124.35210 6648 ft 207 kts 354°
2026-05-08 01:45 42.05455 -124.35382 5995 ft 205 kts 355°
2026-05-08 01:45 42.06865 -124.35663 5329 ft 202 kts 346°
2026-05-08 01:46 42.08184 -124.36189 4685 ft 199 kts 336°
2026-05-08 01:46 42.09179 -124.37417 4030 ft 198 kts 297°
2026-05-08 01:46 42.09504 -124.39198 3396 ft 196 kts 277°
2026-05-08 01:46 42.09629 -124.41045 2801 ft 193 kts 275°
2026-05-08 01:47 42.09710 -124.42746 2475 ft 178 kts 273°
2026-05-08 01:47 42.10012 -124.44332 2075 ft 173 kts 304°
2026-05-08 01:47 42.10971 -124.45188 1686 ft 171 kts 349°
2026-05-08 01:48 42.13228 -124.44526 955 ft 164 kts 20°
2026-05-08 01:48 42.14257 -124.43989 824 ft 146 kts 27°
2026-05-08 01:48 42.14956 -124.43261 1101 ft 114 kts 50°
2026-05-08 01:48 42.15349 -124.42340 1232 ft 117 kts 75°
2026-05-08 01:49 42.15317 -124.41216 1356 ft 127 kts 109°
2026-05-08 01:49 42.14890 -124.40178 1552 ft 125 kts 122°
2026-05-08 01:49 42.14442 -124.39122 1473 ft 142 kts 112°
2026-05-08 01:49 42.14001 -124.37934 1581 ft 138 kts 121°
2026-05-08 01:50 42.13452 -124.36897 1687 ft 135 kts 130°
2026-05-08 01:50 42.12812 -124.35944 1726 ft 136 kts 132°
2026-05-08 01:50 42.12144 -124.35040 1775 ft 136 kts 139°
2026-05-08 01:50 42.11475 -124.34146 1802 ft 136 kts 133°
2026-05-08 01:51 42.10818 -124.33218 1790 ft 139 kts 133°
2026-05-08 01:51 42.10157 -124.32293 1622 ft 134 kts 133°
2026-05-08 01:51 42.09530 -124.31413 1287 ft 127 kts 133°
2026-05-08 01:51 42.08930 -124.30613 967 ft 113 kts 138°
2026-05-08 01:52 42.08375 -124.29983 723 ft 100 kts 140°
2026-05-08 01:52 42.07834 -124.29426 525 ft 96 kts 143°
2026-05-08 01:52 42.07379 -124.28961 450 ft 52 kts 143°
2026-05-08 01:52 42.07214 -124.28795 446 ft 6 kts 68°
2026-05-08 01:53 42.07237 -124.28811 447 ft 6 kts 315°
2026-05-08 01:53 42.07294 -124.28877 448 ft 19 kts 323°
2026-05-08 01:53 42.07420 -124.29005 451 ft 25 kts 323°
2026-05-08 01:53 42.07506 -124.29020 453 ft 11 kts 54°
2026-05-08 01:54 42.07556 -124.28994 453 ft 0 kts 248°